Terug naar catalogus

FENGYUN 1C DEB

ActiefPO
NORAD 30719·DEBRIS·🇨🇳 China

Gelanceerd May 10, 1999 vanaf Taiyuan Satellite Launch Center

Loading…

Volgende Passages (komende 24 uur)

TLE

VersSource: Space-Track

Epoch: Sep 13, 2026, 10:07 UTC

1 30719U 99025ASD 26256.42207069  .00009500  00000-0  16748-2 0  9998
2 30719  98.8981  64.8615 0009684  69.6890 290.5352 14.67721067 14563

Volg FENGYUN 1C DEB in realtime met AllMySat

Download on the App Store